Hourly Data Report for July 08, 2021

ALGONQUIN PARK EAST GATE
ONTARIO
Current Station Operator: ECCC - MSC

45°32'00.000" N
78°16'00.000" W
397.00 m
6080192
71581
TNK

Download Data

Hourly Data (July 2021)
Hourly Data Report for July 8, 2021
TIME
LST
Temp Definition
°C
Dew Point Definition
°C
Rel Hum Definition
%
Precip. Amount Definition
mm

Wind Dir Definition
10's deg

Wind Spd Definition
km/h
Visibility Definition
km
Stn Press Definition
kPa
Hmdx Definition


Wind Chill Definition


Weather Definition


00:00 12.9 10.1 83 0.0 6 2   96.95     LegendNANA
01:00 12.4 9.6 83 0.0 1 1   96.96     LegendNANA
02:00 12.1 8.3 78 0.0 4 2   96.93     LegendNANA
03:00 11.7 8.2 79 0.0 2 3   96.88     LegendNANA
04:00 11.6 8.1 79 0.0 5 2   96.88     LegendNANA
05:00 11.2 8.5 83 0.0 0 1   96.90     LegendNANA
06:00 12.1 7.6 74 0.0 3 2   96.88     LegendNANA
07:00 11.6 8.7 83 0.1 3 2   96.86     LegendNANA
08:00 11.0 9.9 93 2.4 6 2   96.87     LegendNANA
09:00 11.0 10.1 94 3.5 11 5   96.81     LegendNANA
10:00 11.6 10.4 92 0.2 12 3   96.78     LegendNANA
11:00 11.5 10.0 90 0.5 5 3   96.72     LegendNANA
12:00 11.7 10.7 94 0.5 8 4   96.68     LegendNANA
13:00 12.0 11.3 96 3.7 1 2   96.76     LegendNANA
14:00 12.7 12.0 96 3.0 8 3   96.63     LegendNANA
15:00 12.8 11.9 94 1.3 8 3   96.54     LegendNANA
16:00 12.8 11.8 93 0.6 7 5   96.50     LegendNANA
17:00 12.8 11.9 95 0.2 9 2   96.55     LegendNANA
18:00 12.7 11.8 94 0.1 5 3   96.51     LegendNANA
19:00 12.5 11.7 95 0.0 5 2   96.53     LegendNANA
20:00 12.3 11.5 95 0.0 10 1   96.51     LegendNANA
21:00 12.2 11.7 97 0.0 0 1   96.55     LegendNANA
22:00 12.2 11.7 97 0.0   0   96.53     LegendNANA
23:00 12.2 11.7 97 0.0   0   96.55     LegendNANA

Notes on Data Quality.

Legend

  • E = Estimated
  • M = Missing
  • NA = Not Available*
  • [empty] = Indicates an unobserved value
Date modified: